Theta_e
349 350 351 352 352 351 351 349 352 351 351 350 347 350 350 348 348 344 347 349 353 353 353 352 352 354 353 352 351 352 353 353 353 352 352 350 349 342 344 344 339 347 343
347 349 349 352 352 351 351 352 347 351 349 349 349 351 351 352 352 352 352 353 352 353 354 351 352 350 354 353 351 353 353 353 353 353 354 353 350 350 350 349 341 351 351
347 349 348 347 351 352 351 352 351 351 351 351 351 351 351 351 351 352 352 353 352 352 352 353 353 350 350 351 352 346 349 351 351 351 348 346 348 350 350 349 352 349 341
348 350 349 350 350 351 350 351 352 351 350 351 351 351 351 351 352 350 351 351 351 352 352 353 352 353 349 347 347 350 349 349 347 345 346 349 348 346 346 345 339 342 346
349 350 350 347 351 351 351 350 351 351 350 351 351 351 349 351 351 351 351 350 350 350 351 352 352 353 351 350 345 346 346 344 346 345 345 347 348 350 348 345 348 344 342
349 347 350 351 352 351 350 350 350 351 351 351 351 351 352 351 350 351 350 350 352 351 351 351 351 351 345 346 346 345 345 345 343 346 345 347 347 344 344 344 342 338 342
350 346 349 350 351 351 350 349 350 350 351 348 349 352 351 351 347 349 350 350 351 351 351 351 350 350 348 346 346 342 338 339 344 344 345 347 347 343 341 341 344 338 337
348 346 350 350 350 350 350 348 350 350 351 350 351 350 347 345 346 347 346 347 349 350 351 351 350 349 346 346 344 342 342 342 340 340 341 344 345 345 339 340 345 335 334
347 349 349 350 350 350 348 349 350 351 350 350 350 348 346 343 343 343 343 344 348 343 347 350 346 342 344 346 346 346 345 340 339 340 342 343 346 345 340 340 341 342 343
346 349 349 347 350 350 349 348 350 350 347 345 344 345 347 348 346 344 343 342 341 343 339 343 342 343 342 346 345 346 347 340 338 338 341 343 346 343 343 343 345 346 345
348 348 343 345 350 350 347 350 350 348 349 349 348 346 347 347 343 344 343 343 342 347 341 340 341 341 341 345 343 344 345 344 339 339 341 343 343 343 338 337 338 339 340
349 348 341 343 345 346 348 349 348 347 348 347 347 348 348 348 347 347 346 348 349 349 347 342 339 341 342 345 343 344 345 345 341 340 340 339 338 336 333 332 336 337 336
345 347 343 340 340 339 343 346 346 346 348 348 348 349 348 347 344 346 347 350 349 349 347 339 339 342 343 342 341 343 344 344 342 339 339 338 333 331 329 326 325 323 321
345 341 339 336 337 339 342 344 346 348 344 348 348 347 343 344 344 345 344 344 341 341 339 338 339 341 339 340 343 345 344 344 341 339 339 338 335 330 326 324 323 323 318
342 338 336 337 340 343 346 348 346 341 346 345 347 348 345 342 339 336 341 345 341 339 339 338 339 340 342 344 344 345 345 342 338 338 338 337 334 328 327 325 326 326 320
341 340 341 344 346 346 348 349 347 348 349 347 346 345 345 342 342 338 341 344 346 344 342 342 342 343 343 343 344 345 345 347 345 337 338 337 334 330 328 328 329 330 325
343 344 345 346 346 347 349 350 350 350 349 346 344 346 345 344 343 342 341 341 341 344 347 347 347 347 348 348 348 348 347 347 347 341 338 338 336 332 329 330 330 331 332
344 345 346 346 347 349 349 349 350 349 347 348 348 348 349 349 348 345 345 344 343 343 345 346 346 346 346 346 347 347 346 346 345 343 338 338 338 336 332 331 332 331 332
343 344 345 346 348 348 348 349 349 349 347 349 349 351 353 351 348 346 347 347 346 348 349 349 349 347 346 345 347 347 346 345 344 343 339 339 340 340 337 334 333 332 332
343 343 345 347 349 349 349 351 352 349 349 350 351 353 353 347 347 346 346 347 349 350 348 348 348 348 349 348 347 347 347 346 344 344 343 342 341 342 342 339 337 334 334
344 342 345 347 349 349 349 351 352 352 351 351 351 352 346 345 342 342 348 348 348 346 346 348 348 348 347 347 345 346 345 346 345 345 345 345 345 345 345 344 342 340 336
343 343 346 348 349 349 348 350 352 353 349 351 353 352 348 349 350 348 341 342 343 345 345 347 345 344 345 345 345 342 345 343 342 344 346 346 346 346 346 346 345 344 343
344 344 347 349 349 348 347 349 352 352 351 351 352 351 354 355 353 349 345 345 342 341 345 343 345 343 342 343 343 344 345 347 338 338 340 341 340 343 345 343 333 335 338
345 345 347 349 348 347 345 349 352 351 351 351 352 350 353 354 352 351 349 351 343 342 345 343 342 341 340 339 336 337 338 336 342 342 335 335 335 337 340 334 331 330 331
346 346 347 347 345 345 344 348 351 350 351 351 351 350 353 355 352 355 355 355 352 339 340 343 340 339 335 332 332 330 329 329 329 331 332 326 326 327 326 329 331 331 330
346 346 347 346 348 344 344 348 351 353 353 352 351 349 353 354 354 354 354 355 354 350 341 337 339 336 335 335 333 332 331 330 330 329 328 324 324 328 331 329 329 328 330
Wind_Speed
12 13 15 15 14 14 13 14 15 13 13 13 14 15 15 14 14 13 13 12 13 13 14 14 14 17 17 17 17 17 17 17 16 17 17 17 15 15 14 13 14 13 12
19 15 15 14 14 14 12 14 16 14 13 13 13 14 14 15 15 13 13 13 12 12 13 14 14 16 16 16 16 15 15 15 17 16 16 15 15 14 13 12 12 12 11
19 17 16 15 15 14 13 14 14 12 13 13 13 13 15 15 15 14 13 13 13 12 11 13 14 13 14 14 13 14 14 13 15 14 14 14 14 12 11 11 12 10 9
19 17 16 15 15 15 15 14 14 14 13 14 14 15 15 14 14 14 14 13 13 13 12 12 12 12 11 12 12 12 14 13 11 13 13 13 11 11 11 10 9 9 8
19 16 15 16 15 14 14 13 13 14 14 15 15 15 14 13 13 12 13 13 12 11 11 11 11 11 11 10 11 11 8 8 10 10 11 11 11 10 10 9 9 9 7
20 17 16 16 15 14 14 13 12 14 14 13 14 13 12 12 12 11 11 11 11 10 10 10 11 10 10 10 10 7 3 3 6 8 8 8 10 9 8 8 8 6 5
20 18 15 15 14 14 12 12 12 12 12 13 13 12 11 9 10 11 10 9 9 8 9 9 10 11 11 10 9 8 8 11 7 7 7 8 7 6 6 7 7 6 4
19 18 15 14 13 13 13 12 12 12 11 11 11 10 10 9 8 8 8 9 8 7 7 8 9 10 11 11 11 9 10 7 7 7 7 7 6 5 6 6 5 6 7
17 18 16 14 12 11 12 11 11 10 10 9 8 8 8 8 7 7 6 7 8 8 9 8 9 10 10 8 8 7 8 7 7 7 7 6 6 5 7 8 7 7 9
17 16 15 15 13 12 12 11 10 9 8 8 7 6 6 6 6 8 8 8 9 10 10 11 9 10 9 8 7 7 5 5 6 6 7 7 6 6 7 6 6 6 6
16 15 14 15 14 13 12 11 11 9 7 6 5 5 4 4 7 8 8 8 11 11 12 13 11 10 9 8 6 5 3 4 5 5 6 6 5 5 6 6 6 6 5
17 16 15 14 14 13 13 12 11 10 7 6 6 6 5 5 7 9 9 10 10 11 12 13 11 10 11 8 4 3 3 2 4 4 5 5 4 5 6 6 4 4 5
20 17 15 14 13 13 11 11 10 9 8 6 6 6 6 8 11 11 12 14 13 13 14 15 14 13 10 6 2 2 2 3 1 1 4 3 3 4 6 7 7 8 8
19 18 16 15 13 11 10 9 9 8 6 7 9 8 9 10 10 10 10 13 12 13 16 15 14 11 8 6 2 1 2 0 1 1 3 2 2 4 7 7 8 9 10
19 18 18 16 14 12 9 9 10 8 6 5 7 11 9 11 9 5 10 11 12 13 14 14 12 10 8 5 3 2 2 2 3 4 3 3 1 2 4 4 5 6 6
20 20 18 17 14 11 9 10 9 7 5 5 9 9 11 9 8 6 11 11 12 11 10 11 10 8 6 6 6 7 8 8 7 7 6 3 3 2 2 2 2 4 4
23 21 19 16 15 11 10 10 10 7 5 7 9 7 8 8 8 9 9 11 11 11 11 9 9 8 8 9 9 10 11 11 11 10 8 6 5 5 5 4 3 3 3
24 22 20 17 15 13 12 9 9 8 8 7 7 9 9 8 8 10 10 11 10 9 8 8 8 7 6 7 7 7 8 9 10 11 11 9 8 9 9 8 7 7 7
25 22 21 19 17 14 12 9 8 8 10 9 7 5 6 7 8 11 10 10 9 7 6 6 6 6 5 5 6 7 9 9 10 11 12 13 12 12 12 11 11 11 11
28 24 22 20 18 15 14 11 8 11 11 10 8 5 8 8 10 11 12 12 10 6 5 6 7 8 5 7 10 13 13 12 13 14 16 15 15 15 15 15 15 16 15
28 28 27 24 21 19 18 13 10 12 13 13 10 8 12 12 10 9 11 13 10 8 5 4 6 5 4 5 4 6 8 12 15 17 18 18 17 17 18 18 19 19 19
32 31 30 28 24 22 19 15 9 11 14 13 12 11 13 13 11 10 10 9 9 9 9 9 7 5 3 5 3 1 2 4 7 12 15 18 19 18 18 18 19 21 21
31 34 33 31 27 23 20 15 10 10 14 13 13 12 12 10 12 12 12 9 10 12 11 10 8 7 4 6 4 2 0 2 5 4 9 13 14 15 16 17 18 18 19
34 37 34 30 28 25 21 17 14 15 15 16 15 14 13 10 14 12 10 8 7 12 13 10 9 7 6 6 5 5 5 3 0 4 3 7 10 13 15 18 19 17 16
30 37 37 30 28 26 24 20 16 18 18 19 16 14 12 11 15 12 10 10 9 8 13 13 10 8 8 7 8 4 3 2 2 1 3 7 11 8 11 13 15 18 16
31 32 36 32 30 28 28 23 19 15 16 21 17 15 15 13 13 11 9 10 10 6 7 11 10 8 7 7 7 9 7 3 2 3 2 4 7 8 15 10 12 12 14
Wind_Direction
153 147 143 138 132 124 126 134 133 126 124 119 114 112 112 112 114 117 116 112 101 101 97 95 94 96 100 97 99 101 101 99 101 102 99 90 90 94 93 96 99 92 90
149 146 142 135 130 126 125 129 140 135 131 128 121 120 118 119 115 115 112 107 102 103 102 102 99 105 104 106 105 105 102 95 95 100 98 92 87 91 89 89 96 90 92
148 147 139 136 133 133 130 131 138 131 126 125 122 118 115 110 111 110 107 106 107 107 109 109 109 107 116 116 115 107 98 89 87 92 97 88 91 93 95 96 90 87 85
147 144 145 140 138 135 138 136 136 133 128 124 121 120 118 117 117 116 113 110 109 110 118 117 116 115 115 115 111 102 97 97 98 97 95 93 89 90 89 87 89 96 88
148 147 143 141 138 136 135 134 130 127 130 130 124 122 124 119 118 118 116 115 114 115 117 122 126 119 116 117 108 106 102 96 90 92 91 92 93 89 84 74 82 74 80
146 148 146 145 141 138 134 132 133 130 129 129 122 126 129 126 128 125 117 118 119 120 119 121 120 117 119 109 108 103 99 141 109 99 95 98 82 74 75 68 68 70 85
151 148 148 144 144 134 131 134 129 120 122 120 126 123 125 122 122 115 111 109 117 117 122 120 116 120 115 105 97 103 90 111 99 108 100 93 82 68 66 62 62 55 59
152 150 152 149 140 139 138 131 133 130 129 123 126 129 130 129 124 124 134 128 128 130 116 111 116 120 116 106 101 107 102 105 104 104 100 99 82 75 53 61 50 38 38
157 151 155 148 141 141 132 131 131 131 132 133 129 133 132 131 132 130 133 134 140 141 137 134 135 139 134 120 104 92 91 88 100 94 89 90 78 56 47 46 37 34 30
164 161 159 154 148 149 141 137 136 134 134 132 132 134 128 130 135 134 131 148 150 158 163 157 151 152 143 118 96 92 90 76 74 75 78 72 68 46 41 33 14 12 17
168 168 165 161 155 154 146 143 139 138 139 139 138 130 134 137 111 110 115 131 147 156 164 166 158 155 149 127 102 80 75 56 48 68 69 71 70 43 25 18 24 27 19
176 177 172 168 163 161 156 155 151 150 147 148 150 149 140 132 110 108 112 118 131 150 157 157 158 154 158 141 129 83 72 68 30 61 74 65 65 44 31 38 47 28 17
176 180 178 170 170 169 169 168 163 156 153 155 158 153 148 140 128 119 117 123 131 141 148 155 158 157 159 156 138 86 18 327 349 99 113 96 62 49 43 41 43 44 40
183 181 181 171 174 172 172 168 162 159 162 157 159 162 157 147 135 121 120 112 122 134 143 150 155 158 165 170 171 353 332 200 253 219 164 148 70 39 41 43 41 36 37
187 180 178 169 168 170 168 170 173 162 160 152 162 173 169 159 145 127 139 127 124 131 143 151 158 163 171 176 195 251 324 335 291 251 216 176 190 23 35 47 50 47 48
187 178 178 174 172 179 174 172 174 169 177 165 158 161 163 168 177 151 159 153 145 147 154 154 160 171 189 210 241 260 271 282 280 253 236 219 248 284 329 354 14 28 31
184 179 183 184 180 188 186 181 188 180 166 167 169 160 176 188 169 177 169 167 165 173 186 192 197 207 226 248 257 258 269 274 262 254 246 248 251 256 263 284 296 303 320
188 186 179 187 187 178 187 178 169 172 177 176 168 172 174 172 176 171 169 150 155 170 187 197 206 215 230 248 266 275 278 276 265 252 252 256 260 260 260 265 277 286 288
196 191 189 183 189 179 170 185 189 201 187 184 189 176 175 171 165 164 162 155 160 167 179 198 206 216 236 247 270 284 288 274 263 264 263 261 264 265 265 269 271 276 280
198 198 193 193 192 189 174 175 176 194 205 203 198 185 183 177 176 166 168 170 172 188 205 204 210 213 238 266 274 280 274 270 262 267 269 268 267 268 269 269 271 271 275
205 200 196 196 195 189 181 178 182 186 200 199 190 179 160 160 167 174 168 183 189 176 162 166 165 180 223 238 245 261 279 264 270 268 263 264 269 268 268 270 271 272 272
206 205 198 195 195 196 193 191 197 188 192 197 191 184 171 176 178 187 191 184 191 191 186 180 171 153 161 175 204 173 329 295 275 269 256 259 268 270 267 273 277 275 274
204 205 203 197 195 196 201 197 198 183 187 191 198 195 189 197 197 186 191 195 210 215 203 195 200 202 174 205 222 207 336 260 326 290 263 263 273 265 266 273 281 279 279
202 205 206 205 200 197 201 204 208 198 190 201 206 201 200 203 191 180 187 201 206 202 209 209 212 226 240 234 238 241 258 270 106 326 330 301 287 279 276 279 282 282 281
194 201 207 206 201 201 199 204 210 210 213 210 206 201 204 193 189 195 200 205 204 203 212 218 223 234 245 252 242 255 263 278 263 180 291 321 334 326 308 299 293 282 276
193 197 205 203 204 202 199 206 208 211 210 209 204 204 199 193 190 200 209 215 212 219 220 221 228 236 245 256 255 257 258 256 256 227 250 295 315 338 335 331 325 306 279